[[{"header":{"parameterUnit":"m.s-1","parameterCategory":1,"la1":30.2991,"la2":30.254,"lo1":-89.0895,"lo2":-89.0444,"dy":0.0017,"dx":0.0017,"nx":28,"ny":28,"refTime":"2024-04-05T21:00:00:Z","depth":0,"parameterNumber":2,"parameterNumberName":"U-component_of_WINDS"},"data":[0,0,0,0,0,0,0,0,0,0,0,0,0,0,0,0,0,0,0,0,0,0,0,0,0,0,0,0,0,0,0,0,0,0,0,0,0,0,0,0,0,0,0,0,0,0,0,0,0,0,0,0,0,0,0,0,0,0,1.576,1.576,0,1.5763,1.5763,1.5763,1.5702,1.57,1.5699,1.5697,1.5703,1.5704,1.5706,0,0,0,0,0,0,0,0,0,0,0,0,0,1.5704,1.5706,1.576,1.576,1.576,1.5763,1.5763,1.5763,1.5702,1.57,1.5698,1.5696,1.5702,1.5704,1.5706,0,0,0,0,0,0,0,0,0,0,0,0,0,1.572,1.5706,1.576,1.573,1.5727,1.5763,1.5763,1.5763,1.5703,1.57,1.5698,1.5695,1.5701,1.5704,1.5706,1.5772,0,0,1.5714,1.5715,0,0,0,0,0,0,0,0,1.5719,1.5722,1.5734,1.5732,1.5729,1.5729,1.5746,1.5766,1.5703,1.5712,1.5697,1.5694,1.5714,1.5715,1.5721,1.5772,1.5773,1.5714,1.5716,1.5717,1.5718,0,0,0,0,0,0,0,1.5718,1.5722,1.5761,1.5734,1.5731,1.5717,1.5717,1.5749,1.5727,1.5711,1.5706,1.5708,1.5712,1.5719,1.5721,1.5773,1.5714,1.5717,1.5718,1.5719,1.5881,1.5884,0,0,0,0,0,0,1.5721,1.5721,1.5761,1.5761,1.5718,1.572,1.572,1.5732,1.5726,1.5723,1.571,1.5705,1.5716,1.5718,1.5721,1.5799,1.5717,1.5719,1.5721,1.5878,1.5882,1.5885,0,0,0,0,0,0,1.572,1.5725,1.5761,1.574,1.5744,1.5724,1.5738,1.5733,1.574,1.5725,1.5721,1.5721,1.5714,1.5717,1.576,1.5799,1.5721,1.5723,1.5875,1.5879,1.5883,1.5956,0,0,0,0,0,0,1.5719,1.5725,1.5749,1.5741,1.5745,1.5799,1.574,1.5735,1.5744,1.5738,1.5735,1.5732,1.5712,1.5757,1.5763,1.5801,1.5725,1.5871,1.5877,1.5882,1.595,1.5962,1.5972,0,0,0,0,0,1.5717,1.5769,1.575,1.5755,1.5774,1.5801,1.5804,1.5779,1.5748,1.5772,1.5763,1.5732,1.5793,1.5762,1.5768,1.5807,1.5869,1.5875,1.5881,1.5945,1.5959,1.5972,0,0,0,0,0,0,1.5781,1.5767,1.5746,1.5797,1.5801,1.5791,1.5821,1.5795,1.5809,1.5802,1.5772,1.5772,1.5821,1.5818,1.5783,1.5872,1.5826,1.5834,1.5872,1.5886,1.5897,1.5896,1.5727,0,0,0,0,0,1.5802,1.5824,1.5811,1.5857,1.586,1.5841,1.5851,1.5833,1.5836,1.5837,1.5831,1.5836,1.5857,1.5871,1.5889,1.5949,1.5949,1.5979,1.5991,1.6,1.6007,1.6041,1.6056,1.5905,1.5905,1.5905,0,0,1.5843,1.5838,1.5854,1.587,1.5871,1.5896,1.5842,1.5871,1.589,1.5842,1.5882,1.5878,1.5882,1.5935,1.5958,1.5934,1.6049,1.6008,1.6015,1.6017,1.6049,1.6064,1.6076,1.5909,1.5908,1.5908,0,0,1.5933,1.5931,1.597,1.5972,1.5974,1.5961,1.5971,1.5965,1.5961,1.6001,1.5966,1.5989,1.6025,1.603,1.6037,1.6132,1.6104,1.6138,1.6197,1.6231,1.6243,1.6253,1.6289,1.6302,1.6146,1.6146,1.6146,0,1.5985,1.6021,1.5993,1.6025,1.6034,1.5992,1.6033,1.6036,1.6045,1.6053,1.6026,1.6072,1.6071,1.6125,1.6149,1.6155,1.6167,1.6139,1.6243,1.6253,1.6262,1.6296,1.6309,1.615,1.615,1.6149,1.6149,0,1.6086,1.6111,1.6143,1.6152,1.6165,1.6201,1.6181,1.6197,1.6178,1.6169,1.6212,1.621,1.6228,1.6239,1.6221,1.6292,1.6278,1.6248,1.6201,1.6281,1.6313,1.6325,1.6156,1.6155,1.6153,1.6152,0,0,1.6214,1.621,1.6222,1.6227,1.6227,1.6247,1.6283,1.63,1.6316,1.6323,1.6354,1.6386,1.6359,1.6367,1.6349,1.6379,1.6457,1.6345,1.6345,1.6367,1.6538,1.6562,1.6577,1.6439,1.6441,1.6443,1.6538,0,1.6303,1.6362,1.634,1.6401,1.6426,1.6388,1.6419,1.6424,1.6417,1.6438,1.643,1.6454,1.6415,1.6421,1.6448,1.6441,1.6491,1.6434,1.6468,1.647,1.6469,1.6593,1.6617,1.6707,1.655,1.6552,1.6554,0,1.6413,1.6426,1.649,1.6488,1.6498,1.6526,1.6542,1.6562,1.6568,1.6561,1.6572,1.6548,1.6585,1.6538,1.6589,1.6551,1.6564,1.6563,1.6566,1.6569,1.6517,1.6601,1.6735,1.675,1.6572,1.6571,1.657,0,1.6503,1.6536,1.6579,1.6584,1.6583,1.6604,1.6605,1.6608,1.6621,1.6635,1.6644,1.6662,1.6673,1.6688,1.6671,1.6638,1.6727,1.6677,1.6723,1.6724,1.6744,1.6743,1.6884,1.675,1.675,1.675,1.675,0,1.6604,1.6645,1.662,1.6647,1.6693,1.6668,1.6714,1.6711,1.6714,1.6741,1.6709,1.6735,1.6711,1.6735,1.6722,1.6768,1.6773,1.677,1.6766,1.6773,1.6774,1.6782,1.6775,1.6754,1.6753,1.6752,1.6751,0,1.6712,1.6696,1.6741,1.6737,1.6737,1.6771,1.6768,1.6794,1.6785,1.682,1.6827,1.6813,1.6841,1.6825,1.6853,1.6845,1.6905,1.6892,1.6903,1.69,1.6948,1.6944,1.71,1.712,1.6972,1.6974,1.6975,0,1.6778,1.6809,1.6809,1.6824,1.6827,1.6852,1.6865,1.6843,1.6858,1.6869,1.6894,1.6919,1.6937,1.6983,1.6977,1.6999,1.6988,1.7041,1.6991,1.6998,1.6991,1.6989,1.6994,1.7051,1.7053,1.7054,1.7055,0,1.6898,1.6889,1.6909,1.6927,1.6944,1.6957,1.6968,1.6983,1.6961,1.698,1.7008,1.7023,1.7052,1.7078,1.7098,1.71,1.7075,1.7071,1.7083,1.7091,1.7097,1.7097,1.6932,1.7068,1.7066,1.7066,1.7065,1.7064,1.6988,1.7014,1.7019,1.7043,1.7049,1.706,1.7085,1.708,1.7102,1.7124,1.711,1.7144,1.7151,1.7175,1.7181,1.7208,1.7187,1.7204,1.7208,1.7213,1.722,1.7092,1.7211,1.7211,1.721,1.721,1.721,0,1.7107,1.7109,1.7131,1.7147,1.7167,1.7141,1.7153,1.7172,1.7201,1.721,1.7229,1.7263,1.7288,1.7285,1.7309,1.7332,1.7321,1.7339,1.7337,1.7339,1.7237,1.7225,1.7347,1.7347,1.7347,1.7347,1.7347,1.7347,1.7172,1.7216,1.7209,1.7257,1.7258,1.729,1.7299,1.7311,1.7318,1.7356,1.7378,1.7375,1.738,1.7404,1.7428,1.7426,1.7437,1.746,1.7454,1.7359,1.7346,1.7333,1.7321,1.7462,1.7462,1.7554,1.7555,1.7556]},{"header":{"parameterUnit":"m.s-1","parameterCategory":1,"la1":30.2991,"la2":30.254,"lo1":-89.0895,"lo2":-89.0444,"dy":0.0017,"dx":0.0017,"nx":28,"ny":28,"refTime":"2024-04-05T21:00:00:Z","depth":0,"parameterNumber":3,"parameterNumberName":"V-component_of_WINDS"},"data":[0,0,0,0,0,0,0,0,0,0,0,0,0,0,0,0,0,0,0,0,0,0,0,0,0,0,0,0,0,0,0,0,0,0,0,0,0,0,0,0,0,0,0,0,0,0,0,0,0,0,0,0,0,0,0,0,0,0,-2.7284,-2.7285,0,-2.735,-2.7351,-2.7352,-2.7372,-2.7371,-2.7371,-2.7371,-2.7435,-2.7437,-2.7439,0,0,0,0,0,0,0,0,0,0,0,0,0,-2.7172,-2.7173,-2.7284,-2.7285,-2.7286,-2.735,-2.7351,-2.7352,-2.7372,-2.7371,-2.7371,-2.737,-2.7434,-2.7437,-2.7439,0,0,0,0,0,0,0,0,0,0,0,0,0,-2.7227,-2.7174,-2.7284,-2.7303,-2.7306,-2.735,-2.7351,-2.7352,-2.7372,-2.7371,-2.7371,-2.737,-2.7433,-2.7436,-2.7439,-2.7468,0,0,-2.7449,-2.745,0,0,0,0,0,0,0,0,-2.7224,-2.7231,-2.7299,-2.7302,-2.7305,-2.7352,-2.7335,-2.7391,-2.7372,-2.7346,-2.7371,-2.737,-2.7408,-2.7413,-2.7426,-2.7471,-2.7474,-2.7449,-2.7451,-2.7452,-2.7453,0,0,0,0,0,0,0,-2.722,-2.7229,-2.731,-2.73,-2.7304,-2.7308,-2.7315,-2.7346,-2.7379,-2.7349,-2.735,-2.7358,-2.7409,-2.7423,-2.7428,-2.7475,-2.7449,-2.7452,-2.7453,-2.7455,-2.7549,-2.7549,0,0,0,0,0,0,-2.7213,-2.7225,-2.7308,-2.7312,-2.7262,-2.731,-2.7319,-2.7337,-2.7379,-2.7385,-2.7358,-2.7359,-2.7418,-2.7424,-2.743,-2.7468,-2.7452,-2.7455,-2.7457,-2.7548,-2.7549,-2.755,0,0,0,0,0,0,-2.7211,-2.7221,-2.7305,-2.7269,-2.728,-2.7313,-2.7334,-2.7339,-2.7353,-2.7386,-2.7392,-2.7367,-2.7418,-2.7426,-2.7459,-2.747,-2.7456,-2.7459,-2.7547,-2.7548,-2.7549,-2.7543,0,0,0,0,0,0,-2.7208,-2.722,-2.7231,-2.7269,-2.7282,-2.7334,-2.7335,-2.7341,-2.7359,-2.736,-2.7396,-2.7401,-2.7418,-2.7455,-2.7462,-2.7474,-2.7461,-2.7547,-2.7548,-2.7549,-2.7542,-2.7544,-2.7545,0,0,0,0,0,-2.7204,-2.7226,-2.7232,-2.7242,-2.7298,-2.7335,-2.7342,-2.7362,-2.736,-2.7372,-2.7393,-2.74,-2.7468,-2.7458,-2.7467,-2.748,-2.7546,-2.7547,-2.7549,-2.7542,-2.7543,-2.7545,0,0,0,0,0,0,-2.7186,-2.7231,-2.7238,-2.7273,-2.73,-2.7338,-2.7353,-2.7363,-2.739,-2.739,-2.7412,-2.742,-2.7452,-2.7469,-2.7457,-2.7511,-2.7507,-2.751,-2.7499,-2.75,-2.7502,-2.7497,-2.7464,0,0,0,0,0,-2.7187,-2.7214,-2.7251,-2.7279,-2.7292,-2.732,-2.7337,-2.7351,-2.7379,-2.739,-2.7414,-2.744,-2.7467,-2.7485,-2.7511,-2.7545,-2.7553,-2.7558,-2.7559,-2.756,-2.7563,-2.7583,-2.7586,-2.7555,-2.7555,-2.7555,0,0,-2.7188,-2.7215,-2.7231,-2.7276,-2.7298,-2.7326,-2.733,-2.7358,-2.7378,-2.7394,-2.7428,-2.7446,-2.7477,-2.7511,-2.7527,-2.7526,-2.7574,-2.7562,-2.7563,-2.7565,-2.7585,-2.7588,-2.7591,-2.7556,-2.7556,-2.7555,0,0,-2.7203,-2.7227,-2.7253,-2.7276,-2.7311,-2.733,-2.7336,-2.7373,-2.7386,-2.7421,-2.7434,-2.7458,-2.7504,-2.7526,-2.7543,-2.757,-2.7578,-2.7578,-2.7584,-2.7603,-2.7606,-2.7608,-2.7619,-2.7622,-2.758,-2.758,-2.758,0,-2.72,-2.7242,-2.7265,-2.7294,-2.7314,-2.7331,-2.7358,-2.7378,-2.7419,-2.7432,-2.7431,-2.7491,-2.7513,-2.7553,-2.7559,-2.7572,-2.758,-2.7574,-2.7604,-2.7606,-2.7609,-2.7619,-2.7623,-2.758,-2.758,-2.758,-2.758,0,-2.7237,-2.7266,-2.7283,-2.7325,-2.7346,-2.7373,-2.74,-2.7419,-2.7431,-2.745,-2.7486,-2.7513,-2.7546,-2.7557,-2.7568,-2.7599,-2.7597,-2.76,-2.7596,-2.7611,-2.7621,-2.7625,-2.758,-2.758,-2.758,-2.758,0,0,-2.7243,-2.7298,-2.7304,-2.7324,-2.7364,-2.7387,-2.7415,-2.7449,-2.7466,-2.7493,-2.7518,-2.7558,-2.7561,-2.758,-2.7594,-2.7611,-2.7632,-2.7612,-2.7613,-2.7615,-2.7669,-2.7667,-2.7671,-2.7637,-2.7638,-2.7639,-2.7667,0,-2.7264,-2.7317,-2.7339,-2.7382,-2.7409,-2.7427,-2.7452,-2.7479,-2.7498,-2.7524,-2.7544,-2.7573,-2.7574,-2.7586,-2.7604,-2.7626,-2.7643,-2.7624,-2.766,-2.7661,-2.7653,-2.7677,-2.7675,-2.77,-2.7671,-2.7671,-2.7672,0,-2.7296,-2.7327,-2.7372,-2.7411,-2.7424,-2.7446,-2.748,-2.7504,-2.7536,-2.7548,-2.7571,-2.7585,-2.7615,-2.761,-2.7652,-2.7639,-2.7655,-2.7668,-2.7669,-2.7674,-2.7668,-2.7682,-2.7708,-2.7712,-2.7678,-2.7677,-2.7677,0,-2.7297,-2.7349,-2.7384,-2.74,-2.7446,-2.7461,-2.748,-2.7512,-2.7531,-2.7561,-2.7574,-2.7606,-2.7623,-2.7648,-2.7669,-2.7664,-2.771,-2.7706,-2.7721,-2.7721,-2.773,-2.7729,-2.7759,-2.774,-2.7739,-2.7739,-2.7739,0,-2.7319,-2.7347,-2.7385,-2.7407,-2.7438,-2.7463,-2.7493,-2.7514,-2.7542,-2.7567,-2.7583,-2.7606,-2.7634,-2.766,-2.7677,-2.771,-2.7718,-2.7729,-2.7733,-2.7728,-2.7726,-2.7739,-2.7738,-2.774,-2.774,-2.774,-2.774,0,-2.7326,-2.7352,-2.7392,-2.7432,-2.7443,-2.7465,-2.75,-2.7521,-2.7541,-2.7573,-2.7582,-2.7613,-2.7646,-2.767,-2.7711,-2.7723,-2.7758,-2.7762,-2.7748,-2.775,-2.7764,-2.7763,-2.7804,-2.7811,-2.7785,-2.7786,-2.7786,0,-2.7338,-2.736,-2.7404,-2.7423,-2.7443,-2.7473,-2.7494,-2.752,-2.7541,-2.7579,-2.7596,-2.763,-2.7658,-2.7709,-2.7735,-2.7767,-2.7773,-2.7785,-2.7777,-2.7772,-2.7774,-2.7773,-2.7775,-2.7786,-2.7786,-2.7786,-2.7786,0,-2.7358,-2.7371,-2.7401,-2.7437,-2.7462,-2.7491,-2.7519,-2.7534,-2.7565,-2.7587,-2.7622,-2.7644,-2.7688,-2.7721,-2.7756,-2.7776,-2.7786,-2.7788,-2.7794,-2.7789,-2.778,-2.7786,-2.7752,-2.7787,-2.7787,-2.7787,-2.7787,-2.7787,-2.7368,-2.7389,-2.7424,-2.7458,-2.7483,-2.751,-2.7533,-2.7557,-2.7586,-2.7625,-2.7638,-2.7674,-2.7705,-2.7754,-2.7774,-2.7802,-2.7802,-2.7809,-2.7811,-2.7813,-2.7813,-2.7775,-2.7808,-2.7808,-2.7808,-2.7808,-2.7808,0,-2.739,-2.7414,-2.7445,-2.7486,-2.7513,-2.7522,-2.7555,-2.7576,-2.7608,-2.7637,-2.7666,-2.7706,-2.7739,-2.7768,-2.7803,-2.782,-2.7825,-2.7828,-2.7827,-2.7831,-2.781,-2.7803,-2.7823,-2.7823,-2.7823,-2.7823,-2.7823,-2.7823,-2.7404,-2.7441,-2.7458,-2.7507,-2.7531,-2.7567,-2.7585,-2.7611,-2.7635,-2.7679,-2.7707,-2.7727,-2.7757,-2.7794,-2.7824,-2.7832,-2.7844,-2.7846,-2.7855,-2.7834,-2.7833,-2.7831,-2.7824,-2.7848,-2.7848,-2.7874,-2.7874,-2.7874]}]]